Location: Sternwarte ZA, Rosenfeld-Brittheim
(48.2889°N, 8.6789°E)
Time: 06:14:11
(UTC+02:00)

ISS - Pass Details

Date: 19 July 2018
Orbit: 402 x 408 km, 51.6° (Epoch: 23 July)

Event Time Altitude Azimuth Distance (km) Brightness Sun altitude
Rises 03:05:22 0° 287° (WNW) 2,331 0.0 -17.7°
Reaches altitude 10° 03:07:29 10° 293° (WNW) 1,471 -1.0 -17.6°
Maximum altitude 03:10:43 52° 11° (N) 517 -3.0 -17.4°
Drops below altitude 10° 03:13:57 10° 89° (E) 1,471 -0.7 -17.1°
Sets 03:16:05 0° 94° (E) 2,331 0.3 -17.0°
